User: anonymous   Login
Location: Vancouver
(49.2500°N, 123.1330°W)
Time: 00:27:19
(UTC-08:00)
Language:

JAS-1B - Orbit

View from above orbital plane
View from above orbital plane
View from above satellite
View from above satellite

Ground track
Ground track

The orbit data is extracted from the following two-line orbital elements,

1 20480U 90013C   14331.83101240 -.00000008  00000-0  59283-4 0  9101
2 20480 099.0679 264.3365 0540141 343.3140 072.2438 12.83400280162124
Epoch (UTC): 27 November 2014 19:56:39
Eccentricity: 0.0540141
inclination: 99.0679°
perigee height: 911 km
apogee height: 1744 km
right ascension of ascending node: 264.3365°
argument of perigee: 343.3140°
revolutions per day: 12.83400280
mean anomaly at epoch: 72.2438°
orbit number at epoch: 16212

The dashed part of the orbit path shows where the satellite is in the earth's shadow,  

DLR